Wind_Speed
39 41 43 47 42 42 42 43 44 42 39 36 33 31 28 24 20 16 13 11 10 10
36 42 45 46 42 41 40 42 43 41 38 37 34 31 28 25 19 16 13 11 10 11
32 39 46 46 40 39 38 39 41 39 40 39 34 31 28 23 20 16 13 11 10 11
29 38 44 38 38 35 33 38 39 42 41 37 33 32 27 23 19 16 12 11 11 12
30 29 35 33 32 27 34 38 41 43 42 37 37 28 24 20 17 12 12 11 11 13
29 30 32 30 25 29 34 37 39 39 37 34 31 25 20 17 14 13 11 12 14 16
29 30 30 28 28 31 32 34 34 33 31 24 22 19 14 15 14 12 11 12 14 17
27 29 30 30 29 30 31 32 33 29 26 26 19 15 15 13 14 10 12 14 17 18
30 30 29 28 29 29 26 28 27 24 22 17 16 13 12 12 13 13 13 14 15 16
25 25 25 25 24 25 26 26 25 19 17 15 14 13 14 9 12 12 13 13 15 17
25 25 24 25 22 20 20 21 21 20 18 13 13 8 10 9 11 12 13 15 17 18
18 21 21 20 20 22 21 18 15 13 11 7 9 9 9 10 11 12 13 15 15 17
19 21 24 25 23 21 16 13 10 9 7 7 7 8 9 11 12 14 15 15 16 19
21 22 21 20 18 16 14 11 8 6 6 6 6 6 9 12 15 17 20 21 22 21
Wind_Direction
248 241 238 235 234 233 235 234 228 220 218 221 213 214 213 216 217 223 233 245 263 277
253 239 235 236 231 234 235 233 225 218 214 216 213 212 214 214 220 223 236 248 262 275
255 241 232 228 232 235 231 231 222 216 212 212 207 206 206 211 216 226 237 251 268 280
248 234 224 227 230 229 234 230 219 211 210 208 204 203 205 213 222 227 240 258 278 285
237 231 227 225 225 224 228 220 217 212 212 203 200 210 199 214 221 231 247 265 281 288
229 227 225 225 222 230 221 218 212 210 208 206 213 200 204 212 228 238 255 277 287 290
226 217 213 211 214 218 213 209 201 201 199 191 186 194 203 224 237 247 273 286 295 292
205 202 200 200 205 203 202 198 195 188 175 183 195 192 210 228 247 265 284 295 286 284
193 191 194 199 199 198 192 186 181 174 176 180 185 203 232 237 262 288 288 280 282 284
182 185 184 186 180 169 169 171 164 161 171 190 207 226 250 265 278 282 285 288 290 290
178 174 164 157 157 154 154 157 162 172 187 211 236 249 258 270 279 286 292 295 296 298
155 150 151 148 151 151 159 164 175 189 193 204 235 258 274 279 286 292 300 304 304 304
151 145 143 141 143 153 158 162 168 187 195 223 243 266 285 290 301 305 306 308 311 311
132 137 138 143 147 143 147 169 167 196 221 236 253 275 299 314 312 314 312 315 313 312
Height
1437 1442 1446 1451 1455 1459 1462 1467 1471 1475 1479 1484 1488 1491 1495 1498 1499 1500 1501 1500 1500 1501
1429 1434 1439 1443 1448 1453 1456 1460 1464 1469 1475 1478 1483 1486 1491 1494 1495 1496 1498 1497 1496 1496
1423 1427 1431 1436 1441 1446 1450 1454 1459 1464 1469 1473 1477 1481 1485 1488 1491 1491 1492 1493 1491 1492
1415 1420 1426 1431 1435 1440 1445 1449 1453 1458 1463 1468 1472 1476 1477 1482 1486 1488 1488 1489 1487 1487
1412 1416 1423 1426 1430 1436 1440 1443 1448 1452 1458 1463 1466 1474 1473 1480 1483 1483 1484 1483 1483 1482
1409 1409 1418 1423 1427 1432 1435 1440 1445 1450 1456 1462 1466 1470 1474 1480 1481 1481 1480 1478 1478 1477
1405 1408 1413 1419 1423 1428 1433 1437 1443 1449 1456 1460 1466 1471 1471 1477 1482 1479 1475 1474 1472 1471
1401 1407 1412 1416 1418 1424 1429 1435 1441 1448 1454 1461 1469 1468 1474 1477 1479 1474 1471 1469 1467 1466
1402 1405 1409 1411 1418 1423 1429 1436 1443 1448 1455 1462 1465 1469 1471 1473 1473 1469 1466 1464 1463 1463
1399 1406 1408 1416 1422 1427 1433 1437 1443 1450 1453 1460 1463 1463 1466 1466 1467 1465 1462 1460 1459 1459
1401 1408 1415 1422 1428 1432 1438 1442 1444 1448 1451 1455 1461 1462 1464 1464 1463 1461 1459 1457 1455 1453
1414 1416 1421 1425 1427 1432 1438 1446 1449 1452 1453 1456 1462 1462 1461 1461 1458 1457 1455 1453 1451 1449
1418 1419 1421 1428 1431 1438 1444 1448 1451 1457 1457 1458 1459 1459 1456 1456 1455 1454 1451 1450 1446 1445
1421 1424 1428 1432 1437 1442 1445 1450 1451 1454 1456 1457 1457 1455 1453 1452 1452 1448 1446 1443 1442 1440